owner,sensor,date,latitude,longitude,vertical_datum,wind_speed,wind_to_direction,wind_speed_of_gust,qcFlag 
ADCP,ioos:station:wmo:42887:1,2014-01-01T00:00:00Z,28.1910,-88.4960,48.2,7.4,61.0,99.0,'11111222,11111222,11144222' 
ADCP,ioos:station:wmo:42887:1,2014-01-01T00:20:00Z,28.1910,-88.4960,48.2,7.8,60.0,99.0,'11111222,11111222,11144222' 
ADCP,ioos:station:wmo:42887:1,2014-01-01T00:40:00Z,28.1910,-88.4960,48.2,7.8,66.0,99.0,'11111222,11111222,11144222' 
ADCP,ioos:station:wmo:42887:1,2014-01-01T01:00:00Z,28.1910,-88.4960,48.2,8.6,76.0,99.0,'11111222,11111222,11144222' 
ADCP,ioos:station:wmo:42887:1,2014-01-01T01:20:00Z,28.1910,-88.4960,48.2,7.3,63.0,99.0,'11111222,11111222,11144222' 
ADCP,ioos:station:wmo:42887:1,2014-01-01T01:40:00Z,28.1910,-88.4960,48.2,9.2,62.0,99.0,'11111222,11111222,11144222' 
ADCP,ioos:station:wmo:42887:1,2014-01-01T02:00:00Z,28.1910,-88.4960,48.2,7.0,58.0,99.0,'11111222,11111222,11144222' 
ADCP,ioos:station:wmo:42887:1,2014-01-01T02:20:00Z,28.1910,-88.4960,48.2,8.1,61.0,99.0,'11111222,11111222,11144222' 
ADCP,ioos:station:wmo:42887:1,2014-01-01T02:40:00Z,28.1910,-88.4960,48.2,6.9,61.0,99.0,'11111222,11111222,11144222' 
ADCP,ioos:station:wmo:42887:1,2014-01-01T03:00:00Z,28.1910,-88.4960,48.2,7.5,54.0,99.0,'11111222,11111222,11144222' 
ADCP,ioos:station:wmo:42887:1,2014-01-01T03:20:00Z,28.1910,-88.4960,48.2,6.9,41.0,99.0,'11111222,11111222,11144222' 
ADCP,ioos:station:wmo:42887:1,2014-01-01T03:40:00Z,28.1910,-88.4960,48.2,6.8,63.0,99.0,'11111222,11111222,11144222' 
ADCP,ioos:station:wmo:42887:1,2014-01-01T04:00:00Z,28.1910,-88.4960,48.2,6.2,55.0,99.0,'11111222,11111222,11144222' 
ADCP,ioos:station:wmo:42887:1,2014-01-01T04:20:00Z,28.1910,-88.4960,48.2,6.2,67.0,99.0,'11111222,11111222,11144222' 
ADCP,ioos:station:wmo:42887:1,2014-01-01T04:40:00Z,28.1910,-88.4960,48.2,6.7,66.0,99.0,'11111222,11111222,11144222' 
ADCP,ioos:station:wmo:42887:1,2014-01-01T05:00:00Z,28.1910,-88.4960,48.2,6.7,79.0,99.0,'11111222,11111222,11144222' 
ADCP,ioos:station:wmo:42887:1,2014-01-01T05:20:00Z,28.1910,-88.4960,48.2,6.9,95.0,99.0,'11111222,11111222,11144222' 
ADCP,ioos:station:wmo:42887:1,2014-01-01T05:40:00Z,28.1910,-88.4960,48.2,6.9,81.0,99.0,'11111222,11111222,11144222' 
ADCP,ioos:station:wmo:42887:1,2014-01-01T06:00:00Z,28.1910,-88.4960,48.2,6.3,71.0,99.0,'11111222,11111222,11144222' 
ADCP,ioos:station:wmo:42887:1,2014-01-01T06:20:00Z,28.1910,-88.4960,48.2,5.4,63.0,99.0,'11111222,11111222,11144222' 
ADCP,ioos:station:wmo:42887:1,2014-01-01T06:40:00Z,28.1910,-88.4960,48.2,5.0,69.0,99.0,'11111222,11111222,11144222' 
ADCP,ioos:station:wmo:42887:1,2014-01-01T07:00:00Z,28.1910,-88.4960,48.2,5.1,57.0,99.0,'11111222,11111222,11144222' 
ADCP,ioos:station:wmo:42887:1,2014-01-01T07:20:00Z,28.1910,-88.4960,48.2,5.5,57.0,99.0,'11111222,11111222,11144222' 
ADCP,ioos:station:wmo:42887:1,2014-01-01T07:40:00Z,28.1910,-88.4960,48.2,5.2,55.0,99.0,'11111222,11111222,11144222' 
ADCP,ioos:station:wmo:42887:1,2014-01-01T08:00:00Z,28.1910,-88.4960,48.2,5.3,58.0,99.0,'11111222,11111222,11144222' 
ADCP,ioos:station:wmo:42887:1,2014-01-01T08:20:00Z,28.1910,-88.4960,48.2,6.8,66.0,99.0,'11111222,11111222,11144222' 
ADCP,ioos:station:wmo:42887:1,2014-01-01T08:40:00Z,28.1910,-88.4960,48.2,6.9,58.0,99.0,'11111222,11111222,11144222' 
ADCP,ioos:station:wmo:42887:1,2014-01-01T09:00:00Z,28.1910,-88.4960,48.2,6.7,67.0,99.0,'11111222,11111222,11144222' 
ADCP,ioos:station:wmo:42887:1,2014-01-01T09:20:00Z,28.1910,-88.4960,48.2,7.5,72.0,99.0,'11111222,11111222,11144222' 
ADCP,ioos:station:wmo:42887:1,2014-01-01T09:40:00Z,28.1910,-88.4960,48.2,7.0,66.0,99.0,'11111222,11111222,11144222' 
ADCP,ioos:station:wmo:42887:1,2014-01-01T10:00:00Z,28.1910,-88.4960,48.2,6.3,72.0,99.0,'11111222,11111222,11144222' 
ADCP,ioos:station:wmo:42887:1,2014-01-01T10:20:00Z,28.1910,-88.4960,48.2,7.8,64.0,99.0,'11111222,11111222,11144222' 
ADCP,ioos:station:wmo:42887:1,2014-01-01T10:40:00Z,28.1910,-88.4960,48.2,8.2,62.0,99.0,'11111222,11111222,11144222' 
ADCP,ioos:station:wmo:42887:1,2014-01-01T11:00:00Z,28.1910,-88.4960,48.2,6.4,77.0,99.0,'11111222,11111222,11144222' 
ADCP,ioos:station:wmo:42887:1,2014-01-01T11:20:00Z,28.1910,-88.4960,48.2,7.5,84.0,99.0,'11111222,11111222,11144222' 
ADCP,ioos:station:wmo:42887:1,2014-01-01T11:40:00Z,28.1910,-88.4960,48.2,6.9,83.0,99.0,'11111222,11111222,11144222' 
ADCP,ioos:station:wmo:42887:1,2014-01-01T12:00:00Z,28.1910,-88.4960,48.2,7.1,109.0,99.0,'11111222,11111222,11144222' 
ADCP,ioos:station:wmo:42887:1,2014-01-01T12:20:00Z,28.1910,-88.4960,48.2,8.0,90.0,99.0,'11111222,11111222,11144222' 
ADCP,ioos:station:wmo:42887:1,2014-01-01T12:40:00Z,28.1910,-88.4960,48.2,8.2,88.0,99.0,'11111222,11111222,11144222' 
ADCP,ioos:station:wmo:42887:1,2014-01-01T13:00:00Z,28.1910,-88.4960,48.2,7.9,82.0,99.0,'11111222,11111222,11144222' 
ADCP,ioos:station:wmo:42887:1,2014-01-01T13:20:00Z,28.1910,-88.4960,48.2,6.6,91.0,99.0,'11111222,11111222,11144222' 
ADCP,ioos:station:wmo:42887:1,2014-01-01T13:40:00Z,28.1910,-88.4960,48.2,6.7,82.0,99.0,'11111222,11111222,11144222' 
ADCP,ioos:station:wmo:42887:1,2014-01-01T14:00:00Z,28.1910,-88.4960,48.2,7.6,79.0,99.0,'11111222,11111222,11144222' 
ADCP,ioos:station:wmo:42887:1,2014-01-01T14:20:00Z,28.1910,-88.4960,48.2,7.0,78.0,99.0,'11111222,11111222,11144222' 
ADCP,ioos:station:wmo:42887:1,2014-01-01T14:40:00Z,28.1910,-88.4960,48.2,6.4,91.0,99.0,'11111222,11111222,11144222' 
ADCP,ioos:station:wmo:42887:1,2014-01-01T15:00:00Z,28.1910,-88.4960,48.2,7.0,85.0,99.0,'11111222,11111222,11144222' 
ADCP,ioos:station:wmo:42887:1,2014-01-01T15:20:00Z,28.1910,-88.4960,48.2,7.3,85.0,99.0,'11111222,11111222,11144222' 
ADCP,ioos:station:wmo:42887:1,2014-01-01T15:40:00Z,28.1910,-88.4960,48.2,7.9,90.0,99.0,'11111222,11111222,11144222' 
ADCP,ioos:station:wmo:42887:1,2014-01-01T16:00:00Z,28.1910,-88.4960,48.2,6.9,86.0,99.0,'11111222,11111222,11144222' 
ADCP,ioos:station:wmo:42887:1,2014-01-01T16:20:00Z,28.1910,-88.4960,48.2,6.8,89.0,99.0,'11111222,11111222,11144222' 
ADCP,ioos:station:wmo:42887:1,2014-01-01T16:40:00Z,28.1910,-88.4960,48.2,6.4,86.0,99.0,'11111222,11111222,11144222' 
ADCP,ioos:station:wmo:42887:1,2014-01-01T17:00:00Z,28.1910,-88.4960,48.2,6.3,86.0,99.0,'11111222,11111222,11144222' 
ADCP,ioos:station:wmo:42887:1,2014-01-01T17:20:00Z,28.1910,-88.4960,48.2,4.8,87.0,99.0,'11111222,11111222,11144222' 
ADCP,ioos:station:wmo:42887:1,2014-01-01T17:40:00Z,28.1910,-88.4960,48.2,6.4,91.0,99.0,'11111222,11111222,11144222' 
ADCP,ioos:station:wmo:42887:1,2014-01-01T18:00:00Z,28.1910,-88.4960,48.2,6.6,85.0,99.0,'11111222,11111222,11144222' 
ADCP,ioos:station:wmo:42887:1,2014-01-01T18:20:00Z,28.1910,-88.4960,48.2,4.3,88.0,99.0,'11111222,11111222,11144222' 
ADCP,ioos:station:wmo:42887:1,2014-01-01T18:40:00Z,28.1910,-88.4960,48.2,5.4,88.0,99.0,'11111222,11111222,11144222' 
ADCP,ioos:station:wmo:42887:1,2014-01-01T19:00:00Z,28.1910,-88.4960,48.2,6.2,90.0,99.0,'11111222,11111222,11144222' 
ADCP,ioos:station:wmo:42887:1,2014-01-01T19:20:00Z,28.1910,-88.4960,48.2,5.9,86.0,99.0,'11111222,11111222,11144222' 
ADCP,ioos:station:wmo:42887:1,2014-01-01T19:40:00Z,28.1910,-88.4960,48.2,4.4,83.0,99.0,'11111222,11111222,11144222' 
ADCP,ioos:station:wmo:42887:1,2014-01-01T20:00:00Z,28.1910,-88.4960,48.2,7.5,84.0,99.0,'11111222,11111222,11144222' 
ADCP,ioos:station:wmo:42887:1,2014-01-01T20:20:00Z,28.1910,-88.4960,48.2,6.0,81.0,99.0,'11111222,11111222,11144222' 
ADCP,ioos:station:wmo:42887:1,2014-01-01T20:40:00Z,28.1910,-88.4960,48.2,8.3,88.0,99.0,'11111222,11111222,11144222' 
ADCP,ioos:station:wmo:42887:1,2014-01-01T21:00:00Z,28.1910,-88.4960,48.2,8.1,86.0,99.0,'11111222,11111222,11144222' 
ADCP,ioos:station:wmo:42887:1,2014-01-01T21:20:00Z,28.1910,-88.4960,48.2,7.2,84.0,99.0,'11111222,11111222,11144222' 
ADCP,ioos:station:wmo:42887:1,2014-01-01T21:40:00Z,28.1910,-88.4960,48.2,7.9,71.0,99.0,'11111222,11111222,11144222' 
ADCP,ioos:station:wmo:42887:1,2014-01-01T22:00:00Z,28.1910,-88.4960,48.2,8.4,80.0,99.0,'11111222,11111222,11144222' 
ADCP,ioos:station:wmo:42887:1,2014-01-01T22:20:00Z,28.1910,-88.4960,48.2,8.3,83.0,99.0,'11111222,11111222,11144222' 
ADCP,ioos:station:wmo:42887:1,2014-01-01T22:40:00Z,28.1910,-88.4960,48.2,7.5,86.0,99.0,'11111222,11111222,11144222' 
ADCP,ioos:station:wmo:42887:1,2014-01-01T23:00:00Z,28.1910,-88.4960,48.2,7.1,94.0,99.0,'11111222,11111222,11144222' 
ADCP,ioos:station:wmo:42887:1,2014-01-01T23:20:00Z,28.1910,-88.4960,48.2,6.0,85.0,99.0,'11111222,11111222,11144222' 
ADCP,ioos:station:wmo:42887:1,2014-01-01T23:40:00Z,28.1910,-88.4960,48.2,4.8,86.0,99.0,'11111222,11111222,11144222' 
ADCP,ioos:station:wmo:42887:1,2014-01-02T00:00:00Z,28.1910,-88.4960,48.2,7.1,102.0,99.0,'11111222,11111222,11144222' 
ADCP,ioos:station:wmo:42887:1,2014-01-02T00:20:00Z,28.1910,-88.4960,48.2,3.1,99.0,99.0,'11111222,11111222,11144222' 
ADCP,ioos:station:wmo:42887:1,2014-01-02T00:40:00Z,28.1910,-88.4960,48.2,6.5,89.0,99.0,'11111222,11111222,11144222' 
ADCP,ioos:station:wmo:42887:1,2014-01-02T01:00:00Z,28.1910,-88.4960,48.2,6.8,87.0,99.0,'11111222,11111222,11144222' 
ADCP,ioos:station:wmo:42887:1,2014-01-02T01:20:00Z,28.1910,-88.4960,48.2,5.6,94.0,99.0,'11111222,11111222,11144222' 
ADCP,ioos:station:wmo:42887:1,2014-01-02T01:40:00Z,28.1910,-88.4960,48.2,6.4,96.0,99.0,'11111222,11111222,11144222' 
ADCP,ioos:station:wmo:42887:1,2014-01-02T02:00:00Z,28.1910,-88.4960,48.2,7.4,91.0,99.0,'11111222,11111222,11144222' 
ADCP,ioos:station:wmo:42887:1,2014-01-02T02:20:00Z,28.1910,-88.4960,48.2,7.6,91.0,99.0,'11111222,11111222,11144222' 
ADCP,ioos:station:wmo:42887:1,2014-01-02T02:40:00Z,28.1910,-88.4960,48.2,7.8,91.0,99.0,'11111222,11111222,11144222' 
ADCP,ioos:station:wmo:42887:1,2014-01-02T03:00:00Z,28.1910,-88.4960,48.2,7.4,83.0,99.0,'11111222,11111222,11144222' 
ADCP,ioos:station:wmo:42887:1,2014-01-02T03:20:00Z,28.1910,-88.4960,48.2,4.9,91.0,99.0,'11111222,11111222,11144222' 
ADCP,ioos:station:wmo:42887:1,2014-01-02T03:40:00Z,28.1910,-88.4960,48.2,7.5,98.0,99.0,'11111222,11111222,11144222' 
ADCP,ioos:station:wmo:42887:1,2014-01-02T04:00:00Z,28.1910,-88.4960,48.2,6.6,106.0,99.0,'11111222,11111222,11144222' 
ADCP,ioos:station:wmo:42887:1,2014-01-02T04:20:00Z,28.1910,-88.4960,48.2,4.7,97.0,99.0,'11111222,11111222,11144222' 
ADCP,ioos:station:wmo:42887:1,2014-01-02T04:40:00Z,28.1910,-88.4960,48.2,5.8,91.0,99.0,'11111222,11111222,11144222' 
ADCP,ioos:station:wmo:42887:1,2014-01-02T05:00:00Z,28.1910,-88.4960,48.2,5.5,98.0,99.0,'11111222,11111222,11144222' 
ADCP,ioos:station:wmo:42887:1,2014-01-02T05:20:00Z,28.1910,-88.4960,48.2,5.0,84.0,99.0,'11111222,11111222,11144222' 
ADCP,ioos:station:wmo:42887:1,2014-01-02T05:40:00Z,28.1910,-88.4960,48.2,3.6,102.0,99.0,'11111222,11111222,11144222' 
ADCP,ioos:station:wmo:42887:1,2014-01-02T06:00:00Z,28.1910,-88.4960,48.2,4.9,98.0,99.0,'11111222,11111222,11144222' 
ADCP,ioos:station:wmo:42887:1,2014-01-02T06:20:00Z,28.1910,-88.4960,48.2,4.7,84.0,99.0,'11111222,11111222,11144222' 
ADCP,ioos:station:wmo:42887:1,2014-01-02T06:40:00Z,28.1910,-88.4960,48.2,3.5,92.0,99.0,'11111222,11111222,11144222' 
ADCP,ioos:station:wmo:42887:1,2014-01-02T07:00:00Z,28.1910,-88.4960,48.2,4.1,104.0,99.0,'11111222,11111222,11144222' 
ADCP,ioos:station:wmo:42887:1,2014-01-02T07:20:00Z,28.1910,-88.4960,48.2,3.5,120.0,99.0,'11111222,11111222,11144222' 
ADCP,ioos:station:wmo:42887:1,2014-01-02T07:40:00Z,28.1910,-88.4960,48.2,3.8,137.0,99.0,'11111222,11111222,11144222' 
ADCP,ioos:station:wmo:42887:1,2014-01-02T08:00:00Z,28.1910,-88.4960,48.2,4.2,113.0,99.0,'11111222,11111222,11144222' 
ADCP,ioos:station:wmo:42887:1,2014-01-02T08:20:00Z,28.1910,-88.4960,48.2,4.6,142.0,99.0,'11111222,11111222,11144222' 
ADCP,ioos:station:wmo:42887:1,2014-01-02T08:40:00Z,28.1910,-88.4960,48.2,2.9,167.0,99.0,'11111222,11111222,11144222' 
ADCP,ioos:station:wmo:42887:1,2014-01-02T09:00:00Z,28.1910,-88.4960,48.2,2.7,168.0,99.0,'11111222,11111222,11144222' 
ADCP,ioos:station:wmo:42887:1,2014-01-02T09:20:00Z,28.1910,-88.4960,48.2,2.9,183.0,99.0,'11111222,11111222,11144222' 
ADCP,ioos:station:wmo:42887:1,2014-01-02T09:40:00Z,28.1910,-88.4960,48.2,3.9,172.0,99.0,'11111222,11111222,11144222' 
ADCP,ioos:station:wmo:42887:1,2014-01-02T10:00:00Z,28.1910,-88.4960,48.2,3.0,190.0,99.0,'11111222,11111222,11144222' 
ADCP,ioos:station:wmo:42887:1,2014-01-02T10:20:00Z,28.1910,-88.4960,48.2,3.0,179.0,99.0,'11111222,11111222,11144222' 
ADCP,ioos:station:wmo:42887:1,2014-01-02T10:40:00Z,28.1910,-88.4960,48.2,4.4,183.0,99.0,'11111222,11111222,11144222' 
ADCP,ioos:station:wmo:42887:1,2014-01-02T11:00:00Z,28.1910,-88.4960,48.2,5.9,195.0,99.0,'11111222,11111222,11144222' 
ADCP,ioos:station:wmo:42887:1,2014-01-02T11:20:00Z,28.1910,-88.4960,48.2,5.2,219.0,99.0,'11111222,11111222,11144222' 
ADCP,ioos:station:wmo:42887:1,2014-01-02T11:40:00Z,28.1910,-88.4960,48.2,3.3,217.0,99.0,'11111222,11111222,11144222' 
ADCP,ioos:station:wmo:42887:1,2014-01-02T12:00:00Z,28.1910,-88.4960,48.2,4.4,222.0,99.0,'11111222,11111222,11144222' 
ADCP,ioos:station:wmo:42887:1,2014-01-02T12:20:00Z,28.1910,-88.4960,48.2,2.0,222.0,99.0,'11111222,11111222,11144222' 
ADCP,ioos:station:wmo:42887:1,2014-01-02T12:40:00Z,28.1910,-88.4960,48.2,1.3,256.0,99.0,'11111222,11111222,11144222' 
ADCP,ioos:station:wmo:42887:1,2014-01-02T13:00:00Z,28.1910,-88.4960,48.2,2.8,243.0,99.0,'11111222,11111222,11144222' 
ADCP,ioos:station:wmo:42887:1,2014-01-02T13:20:00Z,28.1910,-88.4960,48.2,2.3,271.0,99.0,'11111222,11111222,11144222' 
ADCP,ioos:station:wmo:42887:1,2014-01-02T13:40:00Z,28.1910,-88.4960,48.2,2.9,232.0,99.0,'11111222,11111222,11144222' 
ADCP,ioos:station:wmo:42887:1,2014-01-02T14:00:00Z,28.1910,-88.4960,48.2,1.6,266.0,99.0,'11111222,11111222,11144222' 
ADCP,ioos:station:wmo:42887:1,2014-01-02T14:20:00Z,28.1910,-88.4960,48.2,7.1,272.0,99.0,'11111222,11111222,11144222' 
ADCP,ioos:station:wmo:42887:1,2014-01-02T14:40:00Z,28.1910,-88.4960,48.2,7.9,280.0,99.0,'11111222,11111222,11144222' 
ADCP,ioos:station:wmo:42887:1,2014-01-02T15:00:00Z,28.1910,-88.4960,48.2,15.8,315.0,99.0,'11111222,11111222,11144222' 
ADCP,ioos:station:wmo:42887:1,2014-01-02T15:20:00Z,28.1910,-88.4960,48.2,14.0,184.0,99.0,'11111222,11111222,11144222' 
ADCP,ioos:station:wmo:42887:1,2014-01-02T15:40:00Z,28.1910,-88.4960,48.2,11.8,324.0,99.0,'11111222,11111222,11144222' 
ADCP,ioos:station:wmo:42887:1,2014-01-02T16:00:00Z,28.1910,-88.4960,48.2,14.4,338.0,99.0,'11111222,11111222,11144222' 
ADCP,ioos:station:wmo:42887:1,2014-01-02T16:20:00Z,28.1910,-88.4960,48.2,12.4,337.0,99.0,'11111222,11111222,11144222' 
ADCP,ioos:station:wmo:42887:1,2014-01-02T16:40:00Z,28.1910,-88.4960,48.2,11.0,337.0,99.0,'11111222,11111222,11144222' 
ADCP,ioos:station:wmo:42887:1,2014-01-02T17:00:00Z,28.1910,-88.4960,48.2,10.5,334.0,99.0,'11111222,11111222,11144222' 
ADCP,ioos:station:wmo:42887:1,2014-01-02T17:20:00Z,28.1910,-88.4960,48.2,11.0,340.0,99.0,'11111222,11111222,11144222' 
ADCP,ioos:station:wmo:42887:1,2014-01-02T17:40:00Z,28.1910,-88.4960,48.2,10.3,341.0,99.0,'11111222,11111222,11144222' 
ADCP,ioos:station:wmo:42887:1,2014-01-02T18:00:00Z,28.1910,-88.4960,48.2,11.8,329.0,99.0,'11111222,11111222,11144222' 
ADCP,ioos:station:wmo:42887:1,2014-01-02T18:20:00Z,28.1910,-88.4960,48.2,12.4,326.0,99.0,'11111222,11111222,11144222' 
ADCP,ioos:station:wmo:42887:1,2014-01-02T18:40:00Z,28.1910,-88.4960,48.2,12.5,340.0,99.0,'11111222,11111222,11144222' 
ADCP,ioos:station:wmo:42887:1,2014-01-02T19:00:00Z,28.1910,-88.4960,48.2,10.3,343.0,99.0,'11111222,11111222,11144222' 
ADCP,ioos:station:wmo:42887:1,2014-01-02T19:20:00Z,28.1910,-88.4960,48.2,13.2,334.0,99.0,'11111222,11111222,11144222' 
ADCP,ioos:station:wmo:42887:1,2014-01-02T19:40:00Z,28.1910,-88.4960,48.2,13.1,335.0,99.0,'11111222,11111222,11144222' 
ADCP,ioos:station:wmo:42887:1,2014-01-02T20:00:00Z,28.1910,-88.4960,48.2,14.1,337.0,99.0,'11111222,11111222,11144222' 
ADCP,ioos:station:wmo:42887:1,2014-01-02T20:20:00Z,28.1910,-88.4960,48.2,11.4,342.0,99.0,'11111222,11111222,11144222' 
ADCP,ioos:station:wmo:42887:1,2014-01-02T20:40:00Z,28.1910,-88.4960,48.2,12.4,338.0,99.0,'11111222,11111222,11144222' 
ADCP,ioos:station:wmo:42887:1,2014-01-02T21:00:00Z,28.1910,-88.4960,48.2,11.0,337.0,99.0,'11111222,11111222,11144222' 
ADCP,ioos:station:wmo:42887:1,2014-01-02T21:20:00Z,28.1910,-88.4960,48.2,13.3,332.0,99.0,'11111222,11111222,11144222' 
ADCP,ioos:station:wmo:42887:1,2014-01-02T21:40:00Z,28.1910,-88.4960,48.2,15.8,343.0,99.0,'11111222,11111222,11144222' 
ADCP,ioos:station:wmo:42887:1,2014-01-02T22:00:00Z,28.1910,-88.4960,48.2,14.3,335.0,99.0,'11111222,11111222,11144222' 
ADCP,ioos:station:wmo:42887:1,2014-01-02T22:20:00Z,28.1910,-88.4960,48.2,16.1,347.0,99.0,'11111222,11111222,11144222' 
ADCP,ioos:station:wmo:42887:1,2014-01-02T22:40:00Z,28.1910,-88.4960,48.2,14.0,345.0,99.0,'11111222,11111222,11144222' 
ADCP,ioos:station:wmo:42887:1,2014-01-02T23:00:00Z,28.1910,-88.4960,48.2,13.8,347.0,99.0,'11111222,11111222,11144222' 
ADCP,ioos:station:wmo:42887:1,2014-01-02T23:20:00Z,28.1910,-88.4960,48.2,13.2,350.0,99.0,'11111222,11111222,11144222' 
ADCP,ioos:station:wmo:42887:1,2014-01-02T23:40:00Z,28.1910,-88.4960,48.2,15.1,357.0,99.0,'11111222,11111222,11144222' 
ADCP,ioos:station:wmo:42887:1,2014-01-03T00:00:00Z,28.1910,-88.4960,48.2,16.1,354.0,99.0,'11111222,11111222,11144222' 
ADCP,ioos:station:wmo:42887:1,2014-01-03T00:20:00Z,28.1910,-88.4960,48.2,15.9,359.0,99.0,'11111222,11111222,11144222' 
ADCP,ioos:station:wmo:42887:1,2014-01-03T00:40:00Z,28.1910,-88.4960,48.2,17.1,351.0,99.0,'11111222,11111222,11144222' 
ADCP,ioos:station:wmo:42887:1,2014-01-03T01:00:00Z,28.1910,-88.4960,48.2,16.0,352.0,99.0,'11111222,11111222,11144222' 
ADCP,ioos:station:wmo:42887:1,2014-01-03T01:20:00Z,28.1910,-88.4960,48.2,15.1,347.0,99.0,'11111222,11111222,11144222' 
ADCP,ioos:station:wmo:42887:1,2014-01-03T01:40:00Z,28.1910,-88.4960,48.2,15.2,3.0,99.0,'11111222,11111222,11144222' 
ADCP,ioos:station:wmo:42887:1,2014-01-03T02:00:00Z,28.1910,-88.4960,48.2,16.8,3.0,99.0,'11111222,11111222,11144222' 
ADCP,ioos:station:wmo:42887:1,2014-01-03T02:20:00Z,28.1910,-88.4960,48.2,16.0,359.0,99.0,'11111222,11111222,11144222' 
ADCP,ioos:station:wmo:42887:1,2014-01-03T02:40:00Z,28.1910,-88.4960,48.2,14.0,358.0,99.0,'11111222,11111222,11144222' 
ADCP,ioos:station:wmo:42887:1,2014-01-03T03:00:00Z,28.1910,-88.4960,48.2,16.5,359.0,99.0,'11111222,11111222,11144222' 
ADCP,ioos:station:wmo:42887:1,2014-01-03T03:20:00Z,28.1910,-88.4960,48.2,17.8,355.0,99.0,'11111222,11111222,11144222' 
ADCP,ioos:station:wmo:42887:1,2014-01-03T03:40:00Z,28.1910,-88.4960,48.2,16.8,14.0,99.0,'11111222,11111222,11144222' 
ADCP,ioos:station:wmo:42887:1,2014-01-03T04:00:00Z,28.1910,-88.4960,48.2,16.0,359.0,99.0,'11111222,11111222,11144222' 
ADCP,ioos:station:wmo:42887:1,2014-01-03T04:20:00Z,28.1910,-88.4960,48.2,16.2,351.0,99.0,'11111222,11111222,11144222' 
ADCP,ioos:station:wmo:42887:1,2014-01-03T04:40:00Z,28.1910,-88.4960,48.2,15.6,357.0,99.0,'11111222,11111222,11144222' 
ADCP,ioos:station:wmo:42887:1,2014-01-03T05:00:00Z,28.1910,-88.4960,48.2,16.2,348.0,99.0,'11111222,11111222,11144222' 
ADCP,ioos:station:wmo:42887:1,2014-01-03T05:20:00Z,28.1910,-88.4960,48.2,14.5,2.0,99.0,'11111222,11111222,11144222' 
ADCP,ioos:station:wmo:42887:1,2014-01-03T05:40:00Z,28.1910,-88.4960,48.2,16.1,1.0,99.0,'11111222,11111222,11144222' 
ADCP,ioos:station:wmo:42887:1,2014-01-03T06:00:00Z,28.1910,-88.4960,48.2,14.8,6.0,99.0,'11111222,11111222,11144222' 
ADCP,ioos:station:wmo:42887:1,2014-01-03T06:20:00Z,28.1910,-88.4960,48.2,13.2,353.0,99.0,'11111222,11111222,11144222' 
ADCP,ioos:station:wmo:42887:1,2014-01-03T06:40:00Z,28.1910,-88.4960,48.2,12.3,0.0,99.0,'11111222,11111222,11144222' 
ADCP,ioos:station:wmo:42887:1,2014-01-03T07:00:00Z,28.1910,-88.4960,48.2,13.7,357.0,99.0,'11111222,11111222,11144222' 
ADCP,ioos:station:wmo:42887:1,2014-01-03T07:20:00Z,28.1910,-88.4960,48.2,12.1,1.0,99.0,'11111222,11111222,11144222' 
ADCP,ioos:station:wmo:42887:1,2014-01-03T07:40:00Z,28.1910,-88.4960,48.2,14.5,355.0,99.0,'11111222,11111222,11144222' 
ADCP,ioos:station:wmo:42887:1,2014-01-03T08:00:00Z,28.1910,-88.4960,48.2,14.1,2.0,99.0,'11111222,11111222,11144222' 
ADCP,ioos:station:wmo:42887:1,2014-01-03T08:20:00Z,28.1910,-88.4960,48.2,11.0,357.0,99.0,'11111222,11111222,11144222' 
ADCP,ioos:station:wmo:42887:1,2014-01-03T08:40:00Z,28.1910,-88.4960,48.2,12.2,355.0,99.0,'11111222,11111222,11144222' 
ADCP,ioos:station:wmo:42887:1,2014-01-03T09:00:00Z,28.1910,-88.4960,48.2,12.8,1.0,99.0,'11111222,11111222,11144222' 
ADCP,ioos:station:wmo:42887:1,2014-01-03T09:20:00Z,28.1910,-88.4960,48.2,13.1,360.0,99.0,'11111222,11144222,11144222' 
ADCP,ioos:station:wmo:42887:1,2014-01-03T09:40:00Z,28.1910,-88.4960,48.2,12.9,349.0,99.0,'11111222,11111222,11144222' 
ADCP,ioos:station:wmo:42887:1,2014-01-03T10:00:00Z,28.1910,-88.4960,48.2,14.1,13.0,99.0,'11111222,11111222,11144222' 
ADCP,ioos:station:wmo:42887:1,2014-01-03T10:20:00Z,28.1910,-88.4960,48.2,15.5,359.0,99.0,'11111222,11111222,11144222' 
ADCP,ioos:station:wmo:42887:1,2014-01-03T10:40:00Z,28.1910,-88.4960,48.2,14.6,6.0,99.0,'11111222,11111222,11144222' 
ADCP,ioos:station:wmo:42887:1,2014-01-03T11:00:00Z,28.1910,-88.4960,48.2,11.1,4.0,99.0,'11111222,11111222,11144222' 
ADCP,ioos:station:wmo:42887:1,2014-01-03T11:20:00Z,28.1910,-88.4960,48.2,12.3,2.0,99.0,'11111222,11111222,11144222' 
ADCP,ioos:station:wmo:42887:1,2014-01-03T11:40:00Z,28.1910,-88.4960,48.2,14.2,13.0,99.0,'11111222,11111222,11144222' 
ADCP,ioos:station:wmo:42887:1,2014-01-03T12:00:00Z,28.1910,-88.4960,48.2,11.7,7.0,99.0,'11111222,11111222,11144222' 
ADCP,ioos:station:wmo:42887:1,2014-01-03T12:20:00Z,28.1910,-88.4960,48.2,12.1,11.0,99.0,'11111222,11111222,11144222' 
ADCP,ioos:station:wmo:42887:1,2014-01-03T12:40:00Z,28.1910,-88.4960,48.2,12.9,18.0,99.0,'11111222,11111222,11144222' 
ADCP,ioos:station:wmo:42887:1,2014-01-03T13:00:00Z,28.1910,-88.4960,48.2,13.5,11.0,99.0,'11111222,11111222,11144222' 
ADCP,ioos:station:wmo:42887:1,2014-01-03T13:20:00Z,28.1910,-88.4960,48.2,12.5,13.0,99.0,'11111222,11111222,11144222' 
ADCP,ioos:station:wmo:42887:1,2014-01-03T13:40:00Z,28.1910,-88.4960,48.2,12.4,7.0,99.0,'11111222,11111222,11144222' 
ADCP,ioos:station:wmo:42887:1,2014-01-03T14:00:00Z,28.1910,-88.4960,48.2,12.6,20.0,99.0,'11111222,11111222,11144222' 
ADCP,ioos:station:wmo:42887:1,2014-01-03T14:20:00Z,28.1910,-88.4960,48.2,10.7,5.0,99.0,'11111222,11111222,11144222' 
ADCP,ioos:station:wmo:42887:1,2014-01-03T14:40:00Z,28.1910,-88.4960,48.2,11.4,24.0,99.0,'11111222,11111222,11144222' 
ADCP,ioos:station:wmo:42887:1,2014-01-03T15:00:00Z,28.1910,-88.4960,48.2,7.8,27.0,99.0,'11111222,11111222,11144222' 
ADCP,ioos:station:wmo:42887:1,2014-01-03T15:20:00Z,28.1910,-88.4960,48.2,9.6,14.0,99.0,'11111222,11111222,11144222' 
ADCP,ioos:station:wmo:42887:1,2014-01-03T15:40:00Z,28.1910,-88.4960,48.2,11.5,17.0,99.0,'11111222,11111222,11144222' 
ADCP,ioos:station:wmo:42887:1,2014-01-03T16:00:00Z,28.1910,-88.4960,48.2,12.6,21.0,99.0,'11111222,11111222,11144222' 
ADCP,ioos:station:wmo:42887:1,2014-01-03T16:20:00Z,28.1910,-88.4960,48.2,10.3,30.0,99.0,'11111222,11111222,11144222' 
ADCP,ioos:station:wmo:42887:1,2014-01-03T16:40:00Z,28.1910,-88.4960,48.2,10.0,38.0,99.0,'11111222,11111222,11144222' 
ADCP,ioos:station:wmo:42887:1,2014-01-03T17:00:00Z,28.1910,-88.4960,48.2,8.4,42.0,99.0,'11111222,11111222,11144222' 
ADCP,ioos:station:wmo:42887:1,2014-01-03T17:20:00Z,28.1910,-88.4960,48.2,9.1,33.0,99.0,'11111222,11111222,11144222' 
ADCP,ioos:station:wmo:42887:1,2014-01-03T17:40:00Z,28.1910,-88.4960,48.2,7.5,34.0,99.0,'11111222,11111222,11144222' 
ADCP,ioos:station:wmo:42887:1,2014-01-03T18:00:00Z,28.1910,-88.4960,48.2,9.1,41.0,99.0,'11111222,11111222,11144222' 
ADCP,ioos:station:wmo:42887:1,2014-01-03T18:20:00Z,28.1910,-88.4960,48.2,8.8,42.0,99.0,'11111222,11111222,11144222' 
ADCP,ioos:station:wmo:42887:1,2014-01-03T18:40:00Z,28.1910,-88.4960,48.2,8.7,30.0,99.0,'11111222,11111222,11144222' 
ADCP,ioos:station:wmo:42887:1,2014-01-03T19:00:00Z,28.1910,-88.4960,48.2,8.1,39.0,99.0,'11111222,11111222,11144222' 
ADCP,ioos:station:wmo:42887:1,2014-01-03T19:20:00Z,28.1910,-88.4960,48.2,7.0,34.0,99.0,'11111222,11111222,11144222' 